Location: Czu?�w
(50.1404°N, 18.9919°E)
Time: 14:31:53
(UTC+00:00)

NOSS 2-1 (C) - Pass Details

Date: 27 October 2020
Orbit: 439 x 1763 km, 63.3° (Epoch: 22 November)

Event Time Altitude Azimuth Distance (km) Brightness Sun altitude
Rises 15:56:41 0° 249° (WSW) 2,425 9.2 -5.1°
Reaches altitude 10° 15:58:50 10° 261° (W) 1,563 7.5 -5.5°
Maximum altitude 16:01:53 31° 327° (NNW) 837 4.5 -5.9°
Drops below altitude 10° 16:05:19 10° 31° (NNE) 1,768 5.5 -6.5°
Enters shadow 16:07:10 - 40° (NE) 2,504 6.2 -6.8°
